Precipitable_Water
0.13 0.13 0.13 0.13 0.12 0.12 0.12 0.12 0.12 0.12 0.12 0.12 0.12 0.12 0.12 0.12 0.11 0.11 0.11 0.10 0.11 0.10 0.10 0.10 0.11 0.11 0.11 0.11 0.12 0.12 0.13 0.14 0.17 0.18 0.20 0.25 0.30 0.34 0.36 0.38 0.40 0.44 0.46 0.46 0.49 0.50 0.50 0.50 0.51 0.53 0.55 0.53 0.54 0.54 0.54 0.53 0.51 0.50 0.53 0.55 0.54 0.54 0.51 0.47 0.44 0.43 0.46 0.47 0.46 0.45 0.43 0.42 0.42 0.43 0.43 0.43 0.42 0.42 0.42 0.41 0.38 0.35 0.31 0.27 0.24
0.13 0.13 0.13 0.13 0.12 0.12 0.12 0.12 0.12 0.12 0.12 0.12 0.11 0.12 0.12 0.12 0.12 0.11 0.10 0.10 0.11 0.10 0.10 0.10 0.10 0.10 0.10 0.11 0.11 0.12 0.12 0.12 0.14 0.17 0.17 0.18 0.22 0.28 0.33 0.35 0.36 0.38 0.42 0.44 0.45 0.47 0.48 0.48 0.48 0.50 0.52 0.52 0.52 0.53 0.54 0.54 0.53 0.50 0.49 0.49 0.52 0.53 0.55 0.51 0.48 0.46 0.45 0.47 0.46 0.44 0.43 0.45 0.44 0.46 0.44 0.43 0.43 0.44 0.43 0.43 0.42 0.40 0.37 0.35 0.31
0.14 0.14 0.13 0.13 0.12 0.12 0.12 0.11 0.11 0.11 0.11 0.11 0.11 0.11 0.11 0.11 0.12 0.11 0.11 0.11 0.10 0.10 0.10 0.10 0.09 0.09 0.09 0.10 0.10 0.11 0.11 0.12 0.13 0.14 0.16 0.17 0.18 0.21 0.26 0.31 0.34 0.35 0.37 0.40 0.43 0.45 0.45 0.45 0.46 0.47 0.49 0.49 0.50 0.51 0.53 0.53 0.53 0.52 0.51 0.50 0.48 0.49 0.51 0.52 0.49 0.46 0.45 0.46 0.46 0.44 0.44 0.46 0.45 0.45 0.46 0.46 0.45 0.46 0.44 0.44 0.43 0.42 0.41 0.39 0.36
0.14 0.14 0.13 0.13 0.13 0.12 0.12 0.11 0.11 0.11 0.11 0.11 0.11 0.11 0.11 0.11 0.11 0.11 0.11 0.11 0.11 0.10 0.10 0.10 0.10 0.09 0.09 0.09 0.09 0.10 0.10 0.11 0.12 0.13 0.14 0.16 0.18 0.19 0.20 0.25 0.29 0.32 0.35 0.36 0.39 0.42 0.43 0.43 0.44 0.46 0.46 0.45 0.47 0.49 0.50 0.51 0.51 0.51 0.51 0.51 0.50 0.48 0.48 0.49 0.50 0.49 0.48 0.46 0.47 0.46 0.47 0.46 0.46 0.46 0.46 0.47 0.46 0.45 0.44 0.43 0.43 0.42 0.40 0.40 0.39
0.14 0.14 0.13 0.13 0.13 0.12 0.11 0.11 0.11 0.11 0.11 0.11 0.11 0.11 0.11 0.11 0.11 0.11 0.11 0.11 0.11 0.11 0.10 0.10 0.09 0.09 0.09 0.09 0.09 0.09 0.09 0.10 0.11 0.12 0.12 0.14 0.16 0.18 0.20 0.21 0.24 0.28 0.31 0.34 0.36 0.38 0.40 0.42 0.43 0.44 0.44 0.43 0.44 0.45 0.48 0.48 0.50 0.50 0.50 0.51 0.51 0.50 0.49 0.48 0.47 0.47 0.47 0.45 0.46 0.46 0.46 0.46 0.47 0.47 0.46 0.44 0.44 0.44 0.43 0.42 0.41 0.40 0.39 0.39 0.39
0.15 0.14 0.14 0.13 0.12 0.12 0.12 0.11 0.11 0.11 0.11 0.11 0.11 0.11 0.11 0.11 0.11 0.11 0.11 0.11 0.11 0.11 0.11 0.10 0.10 0.09 0.09 0.09 0.09 0.09 0.09 0.09 0.10 0.11 0.12 0.13 0.14 0.16 0.19 0.21 0.22 0.24 0.27 0.30 0.33 0.36 0.37 0.39 0.42 0.43 0.43 0.42 0.42 0.43 0.45 0.45 0.47 0.48 0.48 0.49 0.50 0.50 0.49 0.48 0.46 0.44 0.45 0.45 0.45 0.43 0.44 0.44 0.44 0.44 0.45 0.45 0.43 0.42 0.41 0.41 0.40 0.39 0.37 0.36 0.38
0.15 0.14 0.14 0.13 0.12 0.12 0.12 0.12 0.12 0.12 0.12 0.12 0.12 0.12 0.12 0.12 0.12 0.12 0.12 0.12 0.11 0.11 0.11 0.11 0.11 0.10 0.10 0.09 0.09 0.08 0.08 0.09 0.09 0.10 0.11 0.12 0.13 0.14 0.16 0.19 0.22 0.23 0.24 0.26 0.30 0.33 0.35 0.37 0.38 0.41 0.42 0.43 0.43 0.43 0.44 0.44 0.45 0.45 0.46 0.47 0.49 0.49 0.48 0.47 0.47 0.44 0.43 0.43 0.43 0.42 0.41 0.42 0.43 0.42 0.43 0.44 0.44 0.42 0.40 0.38 0.37 0.38 0.37 0.36 0.36
0.15 0.14 0.14 0.13 0.12 0.12 0.13 0.13 0.12 0.12 0.12 0.13 0.13 0.13 0.13 0.12 0.12 0.12 0.12 0.12 0.12 0.12 0.11 0.11 0.11 0.11 0.10 0.10 0.09 0.09 0.08 0.08 0.09 0.09 0.10 0.11 0.12 0.13 0.15 0.17 0.20 0.23 0.24 0.24 0.27 0.30 0.33 0.35 0.37 0.38 0.40 0.42 0.43 0.43 0.44 0.43 0.44 0.44 0.46 0.46 0.46 0.46 0.46 0.46 0.45 0.45 0.43 0.42 0.41 0.40 0.40 0.39 0.39 0.41 0.42 0.41 0.39 0.38 0.39 0.38 0.37 0.37 0.37 0.38 0.37
0.15 0.14 0.14 0.13 0.13 0.13 0.13 0.13 0.13 0.13 0.13 0.13 0.13 0.13 0.13 0.13 0.13 0.13 0.13 0.13 0.13 0.12 0.12 0.12 0.11 0.11 0.11 0.10 0.09 0.09 0.08 0.08 0.08 0.09 0.09 0.10 0.12 0.13 0.15 0.16 0.19 0.22 0.23 0.23 0.24 0.27 0.30 0.33 0.36 0.37 0.37 0.39 0.41 0.43 0.44 0.44 0.44 0.43 0.44 0.45 0.45 0.44 0.44 0.44 0.44 0.43 0.43 0.42 0.41 0.42 0.40 0.39 0.39 0.38 0.38 0.38 0.37 0.37 0.39 0.39 0.38 0.38 0.37 0.36 0.36
0.14 0.14 0.14 0.14 0.13 0.13 0.13 0.13 0.13 0.12 0.13 0.13 0.13 0.14 0.14 0.14 0.14 0.13 0.13 0.13 0.12 0.12 0.12 0.12 0.12 0.11 0.10 0.10 0.10 0.09 0.08 0.08 0.08 0.09 0.10 0.11 0.12 0.13 0.14 0.16 0.18 0.21 0.22 0.22 0.23 0.25 0.27 0.31 0.34 0.36 0.36 0.37 0.38 0.40 0.41 0.43 0.44 0.44 0.44 0.44 0.43 0.43 0.43 0.42 0.42 0.42 0.41 0.40 0.40 0.40 0.39 0.38 0.38 0.38 0.38 0.38 0.39 0.38 0.37 0.37 0.35 0.35 0.35 0.34 0.33
0.14 0.14 0.14 0.14 0.13 0.13 0.12 0.12 0.12 0.12 0.13 0.14 0.14 0.14 0.14 0.13 0.13 0.12 0.12 0.12 0.12 0.12 0.12 0.12 0.11 0.11 0.11 0.10 0.10 0.09 0.09 0.08 0.08 0.09 0.10 0.11 0.12 0.13 0.14 0.15 0.17 0.19 0.21 0.22 0.22 0.24 0.25 0.28 0.31 0.34 0.36 0.36 0.36 0.38 0.39 0.40 0.41 0.42 0.43 0.44 0.44 0.43 0.41 0.41 0.41 0.41 0.40 0.39 0.40 0.40 0.39 0.39 0.39 0.40 0.39 0.39 0.38 0.37 0.36 0.35 0.34 0.33 0.32 0.31 0.28
0.14 0.14 0.14 0.14 0.13 0.12 0.12 0.12 0.12 0.13 0.13 0.13 0.14 0.14 0.13 0.13 0.12 0.12 0.12 0.12 0.12 0.12 0.12 0.12 0.11 0.11 0.11 0.10 0.10 0.09 0.09 0.09 0.09 0.09 0.10 0.11 0.12 0.12 0.13 0.15 0.17 0.18 0.20 0.21 0.22 0.23 0.24 0.26 0.29 0.32 0.34 0.35 0.36 0.36 0.37 0.38 0.39 0.40 0.41 0.42 0.42 0.43 0.43 0.42 0.40 0.39 0.39 0.38 0.38 0.38 0.38 0.38 0.38 0.38 0.37 0.36 0.35 0.35 0.34 0.33 0.33 0.32 0.31 0.29 0.28
0.15 0.15 0.15 0.14 0.13 0.12 0.12 0.12 0.12 0.13 0.13 0.13 0.13 0.13 0.13 0.13 0.13 0.12 0.12 0.12 0.13 0.12 0.12 0.12 0.11 0.11 0.11 0.10 0.10 0.09 0.09 0.09 0.09 0.10 0.10 0.11 0.12 0.13 0.13 0.15 0.16 0.17 0.18 0.20 0.21 0.22 0.24 0.24 0.26 0.30 0.32 0.34 0.35 0.36 0.36 0.36 0.38 0.38 0.39 0.39 0.40 0.41 0.41 0.42 0.42 0.41 0.39 0.38 0.37 0.37 0.37 0.37 0.36 0.36 0.37 0.36 0.35 0.33 0.32 0.32 0.32 0.31 0.30 0.30 0.30
0.15 0.14 0.14 0.13 0.13 0.12 0.12 0.13 0.13 0.13 0.13 0.13 0.13 0.13 0.13 0.13 0.13 0.13 0.13 0.13 0.12 0.12 0.11 0.11 0.11 0.11 0.10 0.10 0.10 0.09 0.09 0.09 0.10 0.10 0.11 0.11 0.12 0.12 0.13 0.14 0.16 0.17 0.17 0.19 0.20 0.22 0.23 0.24 0.24 0.26 0.30 0.32 0.33 0.34 0.35 0.35 0.36 0.36 0.37 0.37 0.38 0.38 0.39 0.39 0.39 0.40 0.39 0.38 0.37 0.35 0.37 0.37 0.35 0.36 0.37 0.36 0.34 0.33 0.32 0.31 0.32 0.31 0.31 0.31 0.32
0.14 0.13 0.13 0.13 0.13 0.13 0.13 0.13 0.13 0.13 0.13 0.14 0.14 0.14 0.13 0.13 0.13 0.13 0.12 0.12 0.11 0.11 0.11 0.11 0.11 0.11 0.10 0.10 0.10 0.09 0.09 0.09 0.10 0.10 0.11 0.11 0.12 0.13 0.14 0.15 0.15 0.16 0.17 0.18 0.20 0.21 0.22 0.24 0.24 0.25 0.27 0.29 0.31 0.33 0.33 0.34 0.34 0.34 0.35 0.35 0.36 0.37 0.37 0.38 0.38 0.39 0.38 0.38 0.38 0.37 0.38 0.38 0.38 0.38 0.38 0.38 0.37 0.36 0.36 0.35 0.34 0.34 0.33 0.34 0.33
0.13 0.13 0.12 0.12 0.12 0.13 0.13 0.13 0.13 0.13 0.13 0.13 0.12 0.12 0.12 0.12 0.12 0.12 0.11 0.12 0.12 0.12 0.11 0.11 0.11 0.10 0.10 0.10 0.10 0.09 0.09 0.09 0.10 0.11 0.11 0.12 0.12 0.13 0.14 0.14 0.14 0.15 0.15 0.17 0.18 0.20 0.22 0.23 0.24 0.24 0.25 0.27 0.29 0.31 0.32 0.32 0.32 0.32 0.32 0.33 0.34 0.35 0.36 0.38 0.38 0.39 0.38 0.38 0.38 0.38 0.38 0.39 0.39 0.38 0.38 0.38 0.38 0.38 0.37 0.37 0.36 0.35 0.33 0.32 0.31
0.12 0.12 0.12 0.13 0.13 0.13 0.12 0.12 0.12 0.12 0.12 0.12 0.12 0.12 0.12 0.11 0.11 0.12 0.12 0.12 0.11 0.11 0.11 0.11 0.11 0.10 0.10 0.10 0.09 0.09 0.09 0.09 0.10 0.11 0.12 0.12 0.12 0.13 0.13 0.14 0.14 0.14 0.15 0.16 0.17 0.19 0.21 0.22 0.23 0.24 0.24 0.25 0.28 0.29 0.30 0.31 0.30 0.30 0.31 0.31 0.32 0.33 0.33 0.36 0.37 0.38 0.38 0.38 0.38 0.38 0.38 0.38 0.38 0.38 0.38 0.38 0.37 0.37 0.36 0.33 0.32 0.33 0.31 0.29 0.29
0.12 0.12 0.12 0.12 0.12 0.12 0.12 0.12 0.11 0.11 0.12 0.12 0.12 0.12 0.12 0.12 0.11 0.12 0.11 0.11 0.10 0.10 0.10 0.10 0.10 0.10 0.10 0.09 0.09 0.09 0.09 0.10 0.11 0.11 0.11 0.12 0.12 0.12 0.13 0.13 0.13 0.13 0.14 0.16 0.17 0.18 0.20 0.21 0.22 0.23 0.23 0.24 0.26 0.27 0.28 0.29 0.28 0.29 0.29 0.29 0.29 0.30 0.31 0.34 0.35 0.36 0.37 0.37 0.37 0.37 0.37 0.37 0.37 0.36 0.37 0.37 0.36 0.36 0.34 0.31 0.32 0.31 0.29 0.29 0.28
0.12 0.11 0.11 0.11 0.11 0.11 0.12 0.12 0.12 0.12 0.12 0.12 0.12 0.11 0.11 0.11 0.11 0.11 0.11 0.10 0.10 0.10 0.10 0.10 0.10 0.10 0.10 0.09 0.09 0.09 0.09 0.10 0.10 0.11 0.11 0.11 0.12 0.12 0.13 0.13 0.12 0.13 0.14 0.15 0.16 0.17 0.19 0.20 0.21 0.22 0.23 0.23 0.24 0.25 0.27 0.28 0.27 0.28 0.28 0.28 0.27 0.28 0.29 0.32 0.32 0.32 0.32 0.33 0.34 0.34 0.34 0.35 0.35 0.35 0.35 0.36 0.35 0.34 0.34 0.32 0.31 0.30 0.28 0.28 0.27
0.10 0.10 0.11 0.11 0.12 0.12 0.12 0.12 0.11 0.11 0.11 0.11 0.11 0.11 0.11 0.11 0.11 0.10 0.10 0.10 0.10 0.10 0.10 0.10 0.09 0.09 0.09 0.09 0.10 0.10 0.10 0.10 0.10 0.11 0.11 0.11 0.12 0.12 0.13 0.12 0.12 0.12 0.13 0.14 0.15 0.16 0.17 0.19 0.20 0.21 0.22 0.23 0.23 0.24 0.25 0.26 0.26 0.27 0.27 0.26 0.26 0.26 0.29 0.30 0.30 0.30 0.30 0.31 0.31 0.32 0.32 0.33 0.33 0.33 0.33 0.34 0.33 0.33 0.32 0.32 0.31 0.30 0.28 0.27 0.27
0.11 0.11 0.11 0.11 0.11 0.10 0.10 0.10 0.10 0.10 0.10 0.10 0.11 0.11 0.11 0.10 0.10 0.10 0.10 0.10 0.10 0.09 0.09 0.09 0.09 0.09 0.09 0.09 0.10 0.10 0.10 0.10 0.10 0.11 0.11 0.12 0.12 0.12 0.12 0.12 0.13 0.12 0.12 0.13 0.14 0.15 0.15 0.17 0.19 0.20 0.20 0.21 0.22 0.23 0.24 0.25 0.25 0.25 0.26 0.25 0.26 0.27 0.29 0.28 0.28 0.29 0.29 0.29 0.29 0.29 0.30 0.30 0.30 0.31 0.31 0.31 0.31 0.31 0.31 0.31 0.30 0.30 0.28 0.27 0.26
0.11 0.11 0.10 0.10 0.10 0.10 0.10 0.10 0.10 0.10 0.10 0.11 0.10 0.10 0.10 0.10 0.10 0.10 0.10 0.10 0.09 0.09 0.09 0.09 0.09 0.09 0.09 0.09 0.10 0.10 0.10 0.10 0.11 0.11 0.12 0.12 0.12 0.13 0.13 0.13 0.13 0.13 0.12 0.13 0.13 0.14 0.15 0.16 0.17 0.18 0.19 0.20 0.21 0.22 0.23 0.23 0.24 0.24 0.24 0.25 0.26 0.27 0.27 0.27 0.27 0.27 0.27 0.27 0.27 0.27 0.27 0.27 0.28 0.28 0.28 0.29 0.29 0.30 0.30 0.29 0.29 0.29 0.29 0.28 0.26
0.10 0.10 0.10 0.09 0.09 0.09 0.10 0.10 0.10 0.10 0.10 0.10 0.10 0.10 0.10 0.10 0.10 0.10 0.10 0.09 0.09 0.09 0.09 0.09 0.09 0.09 0.09 0.09 0.10 0.10 0.10 0.11 0.11 0.11 0.12 0.12 0.12 0.12 0.13 0.13 0.14 0.14 0.13 0.12 0.13 0.14 0.15 0.16 0.16 0.17 0.18 0.18 0.20 0.20 0.21 0.22 0.22 0.22 0.23 0.24 0.25 0.25 0.25 0.25 0.25 0.25 0.25 0.25 0.25 0.24 0.25 0.25 0.25 0.25 0.26 0.26 0.27 0.28 0.28 0.28 0.28 0.28 0.27 0.27 0.27
0.10 0.10 0.09 0.09 0.09 0.09 0.09 0.09 0.10 0.10 0.10 0.10 0.10 0.10 0.10 0.10 0.10 0.10 0.10 0.09 0.09 0.09 0.09 0.09 0.09 0.09 0.09 0.09 0.09 0.10 0.10 0.10 0.11 0.11 0.12 0.12 0.12 0.12 0.12 0.13 0.14 0.14 0.14 0.13 0.13 0.14 0.14 0.15 0.16 0.16 0.18 0.18 0.18 0.20 0.20 0.21 0.21 0.23 0.23 0.23 0.24 0.24 0.24 0.24 0.23 0.23 0.23 0.23 0.22 0.22 0.23 0.23 0.24 0.24 0.24 0.25 0.25 0.25 0.26 0.26 0.26 0.26 0.25 0.25 0.25
0.10 0.09 0.09 0.09 0.09 0.09 0.09 0.09 0.10 0.10 0.10 0.10 0.10 0.10 0.10 0.10 0.09 0.09 0.09 0.09 0.09 0.09 0.09 0.09 0.09 0.08 0.08 0.09 0.09 0.09 0.10 0.10 0.10 0.11 0.11 0.11 0.11 0.12 0.13 0.13 0.14 0.14 0.13 0.13 0.13 0.14 0.14 0.15 0.16 0.17 0.18 0.18 0.18 0.19 0.19 0.19 0.20 0.21 0.21 0.22 0.22 0.22 0.22 0.21 0.21 0.21 0.21 0.20 0.20 0.20 0.21 0.21 0.21 0.22 0.23 0.23 0.23 0.23 0.23 0.22 0.23 0.22 0.22 0.22 0.22
0.09 0.09 0.09 0.09 0.09 0.09 0.09 0.09 0.09 0.10 0.10 0.10 0.10 0.10 0.10 0.10 0.09 0.09 0.09 0.09 0.09 0.09 0.09 0.09 0.08 0.08 0.08 0.09 0.09 0.09 0.10 0.10 0.10 0.11 0.11 0.11 0.11 0.12 0.12 0.13 0.13 0.13 0.13 0.13 0.13 0.14 0.15 0.15 0.16 0.16 0.16 0.17 0.17 0.17 0.17 0.18 0.18 0.19 0.19 0.20 0.20 0.20 0.20 0.20 0.20 0.19 0.19 0.19 0.19 0.19 0.19 0.20 0.20 0.20 0.21 0.21 0.20 0.20 0.20 0.19 0.19 0.19 0.19 0.19 0.18
0.09 0.09 0.09 0.09 0.09 0.09 0.09 0.09 0.09 0.10 0.10 0.10 0.10 0.10 0.10 0.10 0.09 0.09 0.09 0.09 0.09 0.09 0.09 0.08 0.08 0.08 0.08 0.08 0.09 0.09 0.09 0.10 0.10 0.11 0.11 0.10 0.10 0.11 0.12 0.12 0.13 0.13 0.13 0.13 0.13 0.13 0.14 0.14 0.14 0.15 0.15 0.15 0.15 0.15 0.15 0.16 0.16 0.17 0.17 0.18 0.18 0.18 0.18 0.18 0.18 0.18 0.18 0.18 0.18 0.18 0.18 0.19 0.19 0.19 0.19 0.19 0.18 0.19 0.19 0.19 0.18 0.18 0.18 0.18 0.17
0.09 0.09 0.09 0.09 0.09 0.09 0.09 0.09 0.09 0.09 0.10 0.10 0.09 0.09 0.09 0.09 0.09 0.09 0.09 0.09 0.09 0.09 0.09 0.08 0.08 0.08 0.08 0.09 0.09 0.09 0.09 0.10 0.10 0.10 0.10 0.10 0.10 0.11 0.12 0.11 0.11 0.12 0.12 0.12 0.12 0.13 0.13 0.13 0.13 0.13 0.13 0.14 0.14 0.14 0.14 0.14 0.14 0.15 0.15 0.15 0.15 0.16 0.16 0.16 0.16 0.16 0.16 0.16 0.16 0.16 0.17 0.17 0.17 0.17 0.17 0.17 0.17 0.18 0.18 0.18 0.17 0.17 0.17 0.17 0.16
0.09 0.09 0.09 0.09 0.08 0.08 0.08 0.09 0.09 0.09 0.09 0.09 0.10 0.10 0.09 0.09 0.09 0.09 0.10 0.10 0.09 0.09 0.09 0.09 0.09 0.09 0.09 0.09 0.09 0.09 0.09 0.09 0.10 0.11 0.11 0.11 0.10 0.10 0.11 0.11 0.11 0.11 0.11 0.11 0.11 0.11 0.12 0.12 0.12 0.11 0.11 0.11 0.11 0.12 0.12 0.12 0.12 0.13 0.13 0.14 0.14 0.14 0.14 0.14 0.14 0.14 0.15 0.15 0.15 0.15 0.14 0.14 0.14 0.15 0.14 0.14 0.14 0.15 0.15 0.15 0.15 0.14 0.14 0.14 0.13
0.08 0.08 0.08 0.08 0.08 0.08 0.08 0.08 0.09 0.09 0.09 0.09 0.09 0.09 0.10 0.10 0.10 0.09 0.09 0.10 0.10 0.10 0.10 0.09 0.10 0.10 0.10 0.10 0.10 0.09 0.09 0.09 0.11 0.11 0.11 0.11 0.11 0.11 0.11 0.11 0.11 0.11 0.11 0.11 0.11 0.11 0.10 0.10 0.10 0.10 0.10 0.11 0.10 0.10 0.11 0.11 0.11 0.11 0.12 0.12 0.12 0.13 0.13 0.13 0.13 0.13 0.14 0.14 0.14 0.14 0.14 0.14 0.13 0.13 0.13 0.13 0.13 0.13 0.13 0.13 0.13 0.13 0.12 0.12 0.11
0.08 0.08 0.08 0.08 0.08 0.08 0.08 0.08 0.08 0.08 0.09 0.09 0.09 0.09 0.09 0.09 0.09 0.09 0.09 0.10 0.10 0.10 0.10 0.10 0.10 0.11 0.11 0.10 0.11 0.11 0.11 0.11 0.11 0.11 0.12 0.12 0.12 0.12 0.12 0.12 0.11 0.12 0.12 0.11 0.11 0.10 0.10 0.10 0.10 0.10 0.10 0.10 0.10 0.10 0.10 0.10 0.10 0.10 0.10 0.11 0.11 0.11 0.11 0.11 0.12 0.12 0.12 0.12 0.13 0.13 0.13 0.13 0.13 0.13 0.13 0.12 0.12 0.12 0.12 0.12 0.12 0.11 0.11 0.11 0.10
0.08 0.08 0.08 0.08 0.08 0.08 0.08 0.08 0.08 0.08 0.08 0.09 0.09 0.09 0.09 0.08 0.08 0.09 0.09 0.09 0.10 0.10 0.10 0.10 0.10 0.11 0.11 0.11 0.11 0.11 0.11 0.11 0.11 0.11 0.11 0.12 0.11 0.11 0.11 0.12 0.12 0.12 0.12 0.12 0.10 0.10 0.10 0.10 0.10 0.10 0.10 0.10 0.10 0.10 0.10 0.10 0.10 0.10 0.10 0.10 0.10 0.10 0.10 0.10 0.11 0.11 0.11 0.11 0.11 0.11 0.11 0.11 0.11 0.11 0.11 0.11 0.11 0.11 0.11 0.11 0.11 0.10 0.10 0.10 0.10
0.08 0.08 0.08 0.08 0.08 0.08 0.08 0.08 0.07 0.07 0.07 0.08 0.08 0.09 0.08 0.08 0.08 0.08 0.09 0.09 0.09 0.09 0.10 0.10 0.10 0.10 0.10 0.10 0.11 0.11 0.11 0.11 0.11 0.11 0.11 0.11 0.11 0.11 0.11 0.11 0.11 0.12 0.12 0.11 0.10 0.10 0.10 0.10 0.09 0.10 0.10 0.10 0.10 0.10 0.10 0.10 0.10 0.10 0.10 0.10 0.10 0.10 0.10 0.10 0.10 0.10 0.10 0.10 0.11 0.11 0.11 0.11 0.11 0.11 0.11 0.11 0.10 0.10 0.10 0.10 0.10 0.10 0.10 0.09 0.09
0.09 0.08 0.08 0.08 0.08 0.08 0.08 0.08 0.07 0.07 0.07 0.07 0.08 0.08 0.09 0.08 0.08 0.08 0.08 0.08 0.08 0.09 0.09 0.09 0.09 0.09 0.10 0.10 0.10 0.10 0.10 0.11 0.11 0.11 0.11 0.11 0.11 0.11 0.11 0.11 0.11 0.11 0.11 0.10 0.10 0.09 0.09 0.09 0.09 0.09 0.10 0.10 0.09 0.10 0.10 0.10 0.10 0.10 0.10 0.10 0.10 0.10 0.10 0.10 0.10 0.10 0.10 0.10 0.09 0.09 0.09 0.09 0.09 0.09 0.09 0.09 0.09 0.09 0.08 0.08 0.08 0.08 0.08 0.07 0.07
0.08 0.08 0.08 0.08 0.08 0.08 0.08 0.07 0.07 0.07 0.07 0.07 0.07 0.08 0.08 0.09 0.08 0.08 0.08 0.08 0.08 0.08 0.08 0.09 0.09 0.09 0.09 0.09 0.10 0.10 0.10 0.10 0.10 0.10 0.11 0.11 0.11 0.11 0.11 0.10 0.10 0.10 0.10 0.10 0.09 0.09 0.09 0.09 0.09 0.09 0.09 0.09 0.09 0.09 0.09 0.09 0.09 0.09 0.09 0.09 0.09 0.09 0.09 0.09 0.08 0.08 0.08 0.08 0.08 0.08 0.08 0.08 0.08 0.08 0.08 0.07 0.07 0.07 0.07 0.07 0.07 0.07 0.06 0.06 0.06
0.08 0.08 0.08 0.08 0.08 0.08 0.07 0.07 0.07 0.07 0.06 0.07 0.07 0.07 0.08 0.08 0.08 0.08 0.08 0.08 0.08 0.08 0.08 0.08 0.09 0.09 0.09 0.09 0.10 0.10 0.10 0.10 0.10 0.10 0.10 0.11 0.11 0.11 0.10 0.09 0.09 0.09 0.09 0.09 0.09 0.09 0.09 0.09 0.09 0.09 0.09 0.09 0.09 0.09 0.09 0.09 0.09 0.09 0.08 0.08 0.08 0.08 0.07 0.07 0.07 0.07 0.07 0.07 0.07 0.07 0.07 0.07 0.07 0.07 0.07 0.06 0.06 0.06 0.06 0.06 0.06 0.06 0.06 0.06 0.05
0.08 0.08 0.08 0.08 0.08 0.07 0.07 0.07 0.07 0.07 0.06 0.06 0.06 0.07 0.07 0.08 0.08 0.08 0.08 0.08 0.08 0.08 0.08 0.08 0.09 0.09 0.09 0.09 0.09 0.10 0.10 0.10 0.10 0.10 0.10 0.10 0.10 0.10 0.10 0.09 0.09 0.09 0.09 0.09 0.09 0.09 0.09 0.09 0.09 0.09 0.09 0.09 0.09 0.08 0.08 0.08 0.08 0.08 0.08 0.07 0.07 0.07 0.07 0.07 0.07 0.07 0.07 0.07 0.06 0.06 0.06 0.06 0.06 0.06 0.06 0.06 0.06 0.06 0.06 0.06 0.06 0.06 0.06 0.06 0.06
0.08 0.08 0.07 0.08 0.07 0.07 0.07 0.07 0.07 0.07 0.06 0.06 0.06 0.06 0.07 0.07 0.07 0.08 0.08 0.08 0.08 0.08 0.08 0.08 0.08 0.08 0.08 0.09 0.09 0.09 0.09 0.09 0.09 0.09 0.09 0.09 0.09 0.09 0.09 0.09 0.09 0.09 0.09 0.09 0.09 0.09 0.08 0.08 0.08 0.08 0.08 0.08 0.08 0.07 0.07 0.07 0.07 0.07 0.07 0.07 0.07 0.07 0.07 0.07 0.07 0.07 0.06 0.06 0.06 0.06 0.06 0.06 0.06 0.06 0.06 0.06 0.06 0.06 0.06 0.06 0.06 0.06 0.06 0.06 0.06
0.08 0.07 0.07 0.07 0.07 0.07 0.07 0.07 0.06 0.06 0.06 0.06 0.06 0.06 0.06 0.06 0.07 0.07 0.08 0.08 0.08 0.08 0.08 0.08 0.08 0.08 0.08 0.09 0.09 0.09 0.09 0.08 0.08 0.08 0.08 0.08 0.08 0.09 0.09 0.09 0.09 0.08 0.08 0.08 0.08 0.08 0.08 0.08 0.07 0.07 0.07 0.07 0.07 0.07 0.07 0.07 0.07 0.07 0.07 0.07 0.07 0.07 0.06 0.06 0.06 0.06 0.06 0.06 0.06 0.06 0.06 0.06 0.06 0.06 0.06 0.06 0.06 0.06 0.06 0.06 0.06 0.06 0.06 0.06 0.06
0.07 0.07 0.07 0.07 0.07 0.07 0.07 0.06 0.06 0.06 0.06 0.06 0.06 0.06 0.06 0.06 0.06 0.07 0.07 0.08 0.08 0.08 0.08 0.08 0.08 0.08 0.09 0.09 0.09 0.09 0.08 0.08 0.08 0.08 0.08 0.08 0.08 0.08 0.08 0.08 0.08 0.08 0.08 0.08 0.08 0.07 0.07 0.07 0.07 0.07 0.07 0.07 0.07 0.07 0.07 0.07 0.07 0.07 0.07 0.07 0.06 0.06 0.06 0.06 0.06 0.06 0.06 0.06 0.06 0.06 0.06 0.06 0.06 0.06 0.06 0.06 0.06 0.06 0.06 0.06 0.06 0.06 0.06 0.06 0.05
0.07 0.07 0.07 0.07 0.07 0.06 0.06 0.06 0.06 0.06 0.06 0.06 0.06 0.06 0.06 0.06 0.06 0.06 0.07 0.07 0.07 0.08 0.08 0.08 0.08 0.08 0.09 0.09 0.09 0.09 0.09 0.08 0.08 0.08 0.08 0.08 0.08 0.08 0.08 0.08 0.08 0.07 0.07 0.07 0.07 0.07 0.07 0.07 0.07 0.07 0.07 0.07 0.07 0.07 0.07 0.07 0.07 0.07 0.06 0.06 0.06 0.06 0.06 0.06 0.06 0.06 0.06 0.06 0.06 0.06 0.06 0.06 0.06 0.06 0.06 0.06 0.06 0.06 0.06 0.06 0.06 0.06 0.05 0.05 0.04
0.06 0.06 0.06 0.06 0.06 0.06 0.06 0.06 0.06 0.06 0.06 0.06 0.06 0.06 0.06 0.06 0.06 0.06 0.06 0.06 0.07 0.07 0.08 0.08 0.08 0.08 0.08 0.09 0.09 0.09 0.09 0.09 0.09 0.08 0.08 0.08 0.08 0.08 0.08 0.08 0.07 0.07 0.07 0.07 0.07 0.07 0.07 0.07 0.07 0.07 0.07 0.07 0.07 0.07 0.07 0.06 0.06 0.06 0.06 0.06 0.06 0.06 0.06 0.06 0.06 0.06 0.06 0.06 0.06 0.06 0.06 0.06 0.06 0.06 0.06 0.06 0.06 0.06 0.06 0.05 0.05 0.05 0.04 0.04 0.04
0.06 0.06 0.06 0.06 0.06 0.06 0.06 0.06 0.06 0.06 0.06 0.06 0.06 0.06 0.06 0.06 0.06 0.06 0.06 0.06 0.06 0.07 0.07 0.08 0.08 0.08 0.08 0.08 0.09 0.09 0.08 0.09 0.09 0.09 0.08 0.08 0.08 0.08 0.08 0.08 0.08 0.08 0.07 0.07 0.07 0.07 0.07 0.07 0.07 0.07 0.07 0.07 0.07 0.07 0.07 0.07 0.06 0.06 0.06 0.06 0.06 0.06 0.06 0.06 0.06 0.06 0.06 0.06 0.06 0.06 0.06 0.06 0.06 0.06 0.06 0.06 0.05 0.05 0.05 0.04 0.04 0.04 0.04 0.04 0.04
0.06 0.06 0.06 0.05 0.05 0.06 0.06 0.06 0.06 0.06 0.06 0.06 0.06 0.06 0.06 0.05 0.05 0.06 0.06 0.06 0.06 0.06 0.07 0.07 0.08 0.08 0.08 0.08 0.08 0.08 0.08 0.08 0.08 0.09 0.08 0.08 0.08 0.08 0.08 0.08 0.08 0.08 0.08 0.08 0.08 0.08 0.07 0.07 0.07 0.07 0.07 0.07 0.07 0.07 0.07 0.07 0.07 0.07 0.07 0.06 0.06 0.06 0.06 0.06 0.06 0.06 0.06 0.06 0.06 0.06 0.06 0.06 0.06 0.05 0.05 0.05 0.05 0.04 0.04 0.04 0.04 0.04 0.04 0.04 0.03
0.05 0.05 0.05 0.05 0.05 0.05 0.05 0.05 0.05 0.05 0.05 0.05 0.05 0.05 0.05 0.05 0.05 0.05 0.06 0.06 0.06 0.06 0.06 0.07 0.07 0.08 0.08 0.08 0.08 0.08 0.08 0.08 0.08 0.08 0.08 0.08 0.08 0.08 0.08 0.08 0.08 0.08 0.08 0.08 0.08 0.08 0.08 0.07 0.07 0.07 0.07 0.07 0.07 0.07 0.07 0.07 0.07 0.07 0.07 0.07 0.06 0.06 0.06 0.06 0.06 0.06 0.06 0.06 0.06 0.06 0.05 0.05 0.05 0.05 0.04 0.04 0.04 0.04 0.04 0.04 0.04 0.04 0.04 0.03 0.03
0.06 0.06 0.05 0.05 0.05 0.05 0.05 0.05 0.05 0.05 0.05 0.05 0.05 0.05 0.05 0.05 0.05 0.05 0.05 0.05 0.06 0.06 0.06 0.06 0.07 0.07 0.07 0.08 0.08 0.08 0.08 0.08 0.08 0.08 0.08 0.08 0.08 0.08 0.08 0.08 0.08 0.08 0.08 0.08 0.08 0.08 0.08 0.08 0.07 0.07 0.07 0.07 0.07 0.07 0.07 0.07 0.07 0.07 0.07 0.07 0.07 0.06 0.06 0.06 0.06 0.06 0.06 0.06 0.06 0.05 0.05 0.05 0.04 0.04 0.04 0.04 0.04 0.04 0.04 0.04 0.04 0.04 0.03 0.03 0.03
0.06 0.06 0.06 0.06 0.06 0.06 0.06 0.05 0.05 0.05 0.05 0.05 0.05 0.05 0.05 0.05 0.05 0.05 0.05 0.05 0.05 0.06 0.06 0.06 0.06 0.07 0.07 0.07 0.08 0.08 0.08 0.08 0.08 0.08 0.08 0.08 0.08 0.08 0.08 0.08 0.08 0.08 0.08 0.08 0.08 0.08 0.08 0.08 0.08 0.07 0.07 0.07 0.07 0.07 0.07 0.07 0.07 0.07 0.07 0.07 0.07 0.06 0.06 0.06 0.06 0.06 0.06 0.06 0.05 0.05 0.05 0.04 0.04 0.04 0.04 0.04 0.04 0.04 0.04 0.04 0.04 0.03 0.03 0.03 0.03
0.06 0.06 0.05 0.05 0.06 0.05 0.05 0.05 0.05 0.05 0.05 0.05 0.05 0.05 0.05 0.05 0.05 0.05 0.05 0.05 0.05 0.05 0.06 0.06 0.06 0.06 0.06 0.07 0.07 0.08 0.08 0.08 0.08 0.08 0.08 0.08 0.08 0.08 0.08 0.08 0.08 0.08 0.08 0.08 0.08 0.08 0.08 0.08 0.08 0.08 0.07 0.07 0.07 0.07 0.07 0.07 0.07 0.07 0.07 0.07 0.06 0.06 0.06 0.06 0.06 0.06 0.06 0.05 0.05 0.04 0.04 0.04 0.04 0.04 0.04 0.04 0.03 0.03 0.03 0.03 0.03 0.03 0.03 0.03 0.03
0.05 0.05 0.05 0.05 0.05 0.05 0.05 0.05 0.05 0.05 0.05 0.05 0.05 0.05 0.05 0.05 0.05 0.05 0.05 0.05 0.05 0.05 0.05 0.05 0.06 0.06 0.06 0.06 0.07 0.07 0.07 0.08 0.08 0.08 0.08 0.08 0.08 0.08 0.08 0.08 0.08 0.08 0.08 0.08 0.08 0.08 0.08 0.08 0.08 0.08 0.07 0.07 0.07 0.07 0.07 0.07 0.07 0.07 0.06 0.06 0.06 0.06 0.06 0.06 0.06 0.05 0.05 0.04 0.04 0.04 0.04 0.04 0.03 0.03 0.03 0.03 0.03 0.03 0.03 0.03 0.03 0.03 0.03 0.03 0.03
0.05 0.05 0.05 0.05 0.05 0.04 0.04 0.04 0.04 0.04 0.04 0.04 0.05 0.05 0.05 0.05 0.05 0.05 0.05 0.05 0.05 0.05 0.05 0.05 0.05 0.06 0.06 0.06 0.06 0.07 0.07 0.07 0.07 0.08 0.08 0.08 0.08 0.08 0.08 0.08 0.08 0.08 0.08 0.08 0.08 0.08 0.08 0.08 0.08 0.07 0.07 0.07 0.07 0.07 0.07 0.07 0.07 0.06 0.06 0.06 0.06 0.06 0.06 0.05 0.05 0.04 0.04 0.04 0.04 0.04 0.03 0.03 0.03 0.03 0.03 0.03 0.03 0.03 0.03 0.03 0.03 0.03 0.03 0.03 0.03
0.05 0.05 0.05 0.04 0.04 0.04 0.04 0.04 0.04 0.04 0.04 0.04 0.04 0.04 0.04 0.04 0.04 0.05 0.05 0.05 0.05 0.05 0.05 0.05 0.05 0.05 0.06 0.06 0.06 0.06 0.06 0.07 0.07 0.07 0.07 0.08 0.08 0.08 0.08 0.08 0.08 0.08 0.08 0.08 0.08 0.08 0.08 0.08 0.08 0.07 0.07 0.07 0.07 0.07 0.07 0.07 0.07 0.06 0.06 0.06 0.06 0.05 0.05 0.04 0.04 0.04 0.04 0.04 0.04 0.03 0.03 0.03 0.03 0.03 0.03 0.03 0.03 0.03 0.03 0.03 0.03 0.03 0.03 0.03 0.03
Wind_Speed
46 47 47 48 49 49 49 49 49 50 50 50 51 51 51 51 51 51 51 52 52 52 52 52 52 52 52 52 52 52 52 52 52 53 53 54 54 54 54 54 55 56 57 58 59 59 60 60 60 60 60 60 59 59 59 60 60 60 60 60 59 58 57 55 54 52 50 49 49 49 49 48 48 49 49 48 49 49 49 49 48 49 50 50 51
44 45 46 47 48 48 49 49 49 50 50 51 51 52 52 52 53 53 53 53 53 54 54 54 54 54 54 54 53 53 53 53 53 53 54 54 55 55 55 55 55 56 57 58 59 59 60 62 63 62 62 62 61 61 60 60 59 59 59 60 59 59 59 58 57 56 54 53 52 50 49 49 49 49 49 49 49 49 49 49 49 49 49 49 50
42 43 43 44 45 46 47 48 48 49 50 50 51 51 52 53 53 54 54 54 55 55 55 55 56 56 56 55 55 55 54 54 54 54 54 55 55 55 56 56 56 56 56 57 59 59 60 61 62 62 62 63 64 63 62 61 60 60 60 60 60 59 59 59 58 58 57 56 54 53 51 51 51 50 50 50 50 50 50 50 50 50 49 49 49
40 40 41 42 43 44 45 45 46 47 48 48 49 50 51 52 52 53 54 55 55 55 56 56 56 56 56 56 56 56 56 55 55 55 55 56 56 56 56 57 57 57 57 57 58 59 60 60 61 61 61 62 64 64 64 63 62 62 61 61 61 60 59 59 59 58 56 56 55 55 54 53 52 51 50 50 51 51 51 51 51 50 50 49 49
40 39 40 41 41 42 42 43 44 45 45 46 47 48 49 50 51 52 53 54 54 55 55 55 56 56 56 57 57 57 57 57 57 56 56 56 57 57 57 57 57 58 58 58 58 59 60 61 61 60 60 61 62 63 63 64 64 63 62 61 61 61 60 59 59 58 57 56 55 54 54 54 53 53 52 51 51 52 52 51 51 50 50 50 49
40 40 40 40 40 41 41 41 42 43 43 44 45 46 47 48 49 50 51 52 53 53 54 54 55 55 56 56 57 57 57 58 58 58 57 57 57 57 57 57 57 58 58 58 58 58 59 60 61 60 60 60 61 61 61 62 63 63 63 62 62 62 61 60 59 58 58 57 55 54 54 54 53 53 52 52 51 51 51 51 51 50 50 49 49
40 39 40 40 40 40 41 41 41 42 42 43 44 44 45 46 47 48 49 50 51 52 53 53 54 54 55 56 57 57 58 58 58 58 58 58 58 58 58 58 58 58 58 58 58 58 58 59 60 60 61 61 60 60 60 60 61 62 62 62 62 62 61 60 59 58 57 56 55 55 54 54 54 53 53 52 51 51 51 51 51 50 50 49 49
39 39 39 39 39 40 40 41 41 41 42 42 43 44 45 45 46 47 48 48 49 50 51 52 53 54 54 55 55 56 57 58 58 59 59 59 59 59 59 59 58 58 58 58 58 58 58 58 59 60 60 61 60 60 60 59 59 60 61 61 61 62 62 61 60 59 58 57 56 55 54 54 54 54 53 52 52 52 52 51 51 50 50 50 49
39 38 39 39 39 40 40 40 41 41 42 42 42 43 44 45 46 46 46 47 48 49 50 50 52 53 53 54 55 55 56 57 58 58 59 60 60 60 60 60 59 59 58 58 58 58 58 58 58 59 59 60 60 60 60 60 59 59 58 59 59 60 60 60 59 59 59 58 58 57 56 56 56 55 54 54 54 54 53 52 52 51 51 50 50
38 38 38 39 39 40 40 40 41 41 41 41 42 43 44 45 45 46 46 47 47 48 49 49 50 51 52 53 54 55 55 56 57 58 59 60 60 60 61 60 60 59 58 58 57 57 58 58 57 58 58 59 59 60 60 60 60 59 58 57 57 57 57 57 57 57 57 57 57 57 56 56 57 56 56 55 55 54 53 53 53 51 51 50 50
38 38 38 39 39 40 40 40 40 40 41 41 42 43 44 45 45 46 46 47 47 47 48 48 49 50 51 52 53 54 54 55 57 58 59 60 60 60 61 61 61 60 59 57 57 56 57 57 57 57 57 57 58 58 58 59 59 59 59 58 57 56 56 55 55 55 55 55 55 55 55 55 55 55 55 54 54 53 53 53 52 51 51 51 50
38 38 38 39 39 39 40 40 40 40 40 41 42 43 44 45 45 45 46 46 47 47 48 48 49 49 50 51 52 53 54 55 56 57 58 59 59 60 60 61 61 60 59 58 57 56 56 57 56 56 56 56 56 56 57 57 57 58 58 58 58 57 57 56 55 55 54 54 54 54 54 53 53 53 53 53 53 53 53 52 52 52 52 52 51
37 37 38 38 39 39 39 39 40 40 40 41 42 43 44 45 45 45 45 46 46 47 48 48 48 49 49 50 51 52 53 54 55 56 57 58 58 59 59 60 61 60 59 58 57 56 55 55 56 55 55 55 55 55 55 55 56 56 56 56 56 57 57 57 56 55 55 54 54 54 54 53 52 52 53 52 52 52 52 53 53 52 52 52 52
37 37 37 38 38 39 39 39 40 40 41 42 43 43 44 44 44 44 45 45 46 47 47 48 48 48 48 49 50 50 51 52 54 55 56 56 57 57 58 59 60 60 59 58 58 57 55 54 54 54 54 54 53 54 54 54 54 54 55 55 55 55 55 55 55 55 54 54 54 54 54 53 53 53 52 52 53 53 53 53 53 52 52 52 52
37 37 37 38 38 39 39 39 39 40 41 41 42 42 43 43 44 45 45 45 46 46 46 46 47 47 47 48 48 49 49 50 52 53 54 54 55 55 56 57 58 58 58 58 57 57 55 53 53 53 53 53 52 52 52 52 52 53 53 53 53 53 54 54 54 53 53 53 53 53 53 53 53 52 52 52 52 52 52 52 52 52 52 52 52
37 38 38 38 37 37 38 38 39 40 41 42 42 43 43 44 44 45 44 44 44 43 44 45 45 46 46 47 47 48 48 49 49 50 50 51 52 53 54 55 56 56 57 57 57 57 56 54 52 52 52 52 51 50 50 50 50 51 51 52 52 52 52 52 52 52 52 52 52 52 51 51 51 51 51 51 51 51 50 50 51 51 51 51 51
37 36 36 36 36 36 37 39 40 41 42 42 42 42 42 42 42 42 41 41 41 41 42 43 43 44 45 46 46 47 47 46 47 47 47 48 49 50 51 53 53 53 55 55 55 56 56 54 52 51 50 50 50 50 49 49 49 49 49 50 50 50 50 50 50 51 51 50 50 50 50 50 50 50 50 50 49 49 49 49 49 49 49 49 50
35 35 35 36 37 38 38 39 39 40 40 40 40 40 40 39 39 39 39 39 40 40 41 41 42 43 44 44 45 45 45 45 45 45 46 47 47 47 49 51 51 51 52 53 53 54 54 54 52 51 49 49 49 49 48 48 48 48 48 48 48 48 48 49 48 48 48 49 49 49 49 49 49 49 49 49 48 48 49 49 49 49 49 49 49
35 36 37 37 37 37 37 37 37 37 38 38 38 38 38 38 38 38 38 39 39 39 39 39 40 40 41 42 43 43 43 42 43 44 44 45 45 45 46 48 49 49 50 51 51 51 52 52 52 50 49 48 48 48 48 47 47 47 47 46 46 46 46 47 47 47 47 46 47 47 47 47 47 47 47 47 48 48 48 48 48 48 49 48 48
37 36 36 35 35 35 35 36 36 37 38 38 38 38 38 37 37 37 37 37 37 37 37 37 37 37 37 38 39 39 39 39 40 41 42 43 43 43 43 44 45 46 47 49 49 50 50 50 50 49 48 46 46 46 47 46 46 46 46 46 46 45 45 45 45 45 45 45 45 45 45 45 45 45 46 46 47 47 47 47 48 48 48 48 48
35 34 34 34 34 35 35 36 37 37 37 37 37 36 36 36 36 35 35 35 34 34 34 34 34 33 33 33 34 34 35 35 36 37 38 39 40 40 40 41 42 43 44 46 47 48 48 49 48 48 47 47 45 44 45 45 45 44 44 45 45 45 45 45 44 44 44 44 44 44 44 44 44 45 45 45 45 46 46 46 47 47 48 48 48
33 33 34 34 35 35 35 35 36 36 36 36 35 35 34 34 34 33 32 32 32 32 31 31 30 29 29 29 30 30 31 31 31 33 34 35 36 37 38 39 40 41 42 43 44 45 46 47 47 46 47 47 46 45 44 44 43 43 43 43 43 44 44 44 44 44 43 43 43 43 43 43 44 44 44 45 45 45 45 46 46 46 47 47 48
33 34 34 34 34 35 35 35 34 34 34 34 33 33 32 32 32 31 30 29 29 29 29 28 27 26 26 26 26 26 26 27 27 28 29 30 31 33 34 36 37 39 40 40 42 43 44 44 44 44 45 46 45 45 44 43 43 42 42 42 42 42 42 43 43 43 43 43 43 43 43 43 43 43 44 44 44 45 45 45 45 45 45 46 46
34 34 34 34 34 34 34 34 33 33 33 32 31 31 30 30 30 28 27 27 27 27 26 25 24 24 23 23 23 23 22 23 23 24 25 25 27 28 30 33 35 36 37 37 39 40 41 41 42 42 42 43 43 42 42 41 41 41 41 41 41 41 41 42 42 42 42 42 42 42 42 43 43 43 43 44 44 44 44 44 44 45 45 45 45
33 33 33 34 34 34 33 33 32 31 31 30 29 29 29 29 28 26 26 26 25 24 23 23 22 21 21 20 20 20 20 20 20 20 21 22 23 24 25 28 30 32 33 34 35 37 38 38 39 38 38 39 39 39 39 39 39 39 40 40 40 40 41 41 41 41 41 41 41 41 41 42 42 42 43 43 43 43 43 43 43 43 44 44 44
33 33 33 33 33 33 33 32 31 30 29 29 28 28 28 27 26 25 25 24 23 22 22 21 20 19 19 18 18 17 17 17 16 17 18 19 20 20 20 22 25 27 28 30 32 33 34 35 36 36 36 37 37 38 38 38 38 37 38 38 39 39 39 39 39 39 39 39 39 39 39 40 40 40 40 41 41 41 41 41 41 41 42 42 42
33 33 33 33 33 33 32 31 30 29 28 28 27 27 26 25 24 24 23 22 21 21 20 19 19 18 17 16 15 15 15 14 14 15 15 16 18 19 18 19 21 23 25 27 29 30 32 33 34 35 35 35 36 36 37 37 36 36 36 36 36 37 37 37 37 37 37 37 37 37 37 37 37 38 38 38 38 39 39 40 40 40 40 41 41
33 33 33 33 33 32 32 31 30 28 28 27 26 26 25 24 23 22 22 21 20 20 19 18 17 16 16 15 14 13 13 12 12 13 13 14 16 17 18 18 20 21 23 25 27 29 30 31 32 33 34 35 35 35 35 35 35 35 35 35 35 35 35 35 35 35 35 35 35 35 35 36 36 36 37 37 37 37 38 38 38 39 39 39 40
33 33 33 33 33 32 31 30 29 28 27 26 26 25 24 24 23 22 21 20 19 19 18 17 16 15 14 13 13 12 11 11 11 12 12 13 14 15 17 18 19 20 22 23 25 27 28 29 30 31 32 33 33 33 34 34 34 34 34 34 34 34 34 34 34 34 34 34 34 34 34 35 35 35 35 35 36 36 37 37 37 38 38 39 39
32 32 32 32 32 32 31 29 28 27 26 26 25 25 24 23 22 22 21 19 19 19 17 17 16 15 14 13 13 12 11 11 10 11 11 12 13 14 15 16 17 19 21 22 22 24 25 26 27 28 29 30 30 31 31 32 32 32 32 32 33 33 33 33 33 33 34 34 34 34 34 34 34 34 35 35 35 35 36 36 37 37 38 38 38
31 31 32 32 32 31 30 29 28 27 26 25 24 24 24 23 22 21 21 19 18 18 17 16 15 14 13 12 12 12 12 12 11 10 10 10 11 12 13 14 15 17 19 20 21 22 23 24 25 26 27 27 28 29 29 30 30 30 30 30 31 31 31 31 32 32 32 33 33 33 33 34 34 34 34 34 35 35 36 36 37 37 37 38 38
31 31 32 32 32 31 30 28 27 26 26 25 24 23 23 23 22 21 20 19 18 17 16 15 14 13 11 10 9 9 10 11 11 11 10 10 10 11 12 13 14 16 18 19 19 20 22 22 23 24 25 26 26 27 28 28 28 28 28 29 29 29 29 30 30 30 31 31 32 32 32 33 33 33 34 34 34 34 35 35 36 36 36 37 37
31 31 32 32 32 31 29 28 27 26 25 25 24 23 22 22 22 21 20 19 18 16 15 14 14 12 11 10 8 7 8 8 9 10 10 10 10 11 12 13 14 15 17 18 19 19 20 21 22 23 24 24 25 25 26 26 27 27 27 27 27 27 27 28 28 29 29 30 30 31 31 32 32 32 33 33 33 34 34 34 34 35 35 35 36
31 32 32 32 32 30 29 27 26 26 25 25 24 23 22 21 21 20 20 19 17 16 14 14 13 13 12 11 10 9 8 8 8 9 10 11 11 11 11 12 13 14 16 17 18 18 19 19 20 21 22 23 23 23 24 25 25 25 25 25 25 26 26 26 27 27 28 28 29 29 30 30 31 31 31 32 32 32 33 33 33 34 34 34 34
32 32 32 32 31 29 28 27 26 26 25 25 24 23 22 21 21 20 19 18 17 16 15 13 13 13 12 12 11 11 10 10 10 11 11 12 12 12 12 12 13 14 15 16 17 17 18 19 19 20 21 22 22 22 23 23 23 24 24 24 24 25 25 25 25 26 26 26 27 27 28 28 29 29 30 30 30 31 31 31 32 32 32 32 32
32 32 32 32 31 29 27 27 26 26 25 25 24 23 23 21 20 19 18 17 17 16 15 14 13 12 12 12 12 12 12 12 12 12 13 13 13 13 14 14 14 15 15 15 16 17 17 18 19 19 20 21 21 21 22 22 22 23 23 23 23 23 23 24 24 24 24 25 25 26 26 26 27 27 28 28 28 29 29 29 30 30 30 30 31
32 32 32 31 30 28 27 27 27 26 26 25 24 24 23 21 20 19 18 17 16 16 15 14 13 13 12 12 11 12 12 12 12 12 12 12 12 13 14 15 15 16 16 16 16 17 17 18 19 19 20 20 21 21 21 21 21 21 22 22 22 22 22 23 23 23 23 24 24 24 25 25 25 26 26 27 27 27 28 28 28 28 29 29 29
33 32 32 31 29 28 28 27 27 27 26 25 24 23 22 21 20 19 18 17 16 16 15 14 14 13 13 12 12 12 12 12 12 12 12 12 12 13 14 14 15 16 16 17 17 17 17 18 18 19 19 20 20 20 20 20 21 21 21 21 21 21 22 22 22 22 22 23 23 23 24 24 24 25 25 26 26 27 27 27 28 28 28 28 29
33 32 32 30 29 28 28 28 27 27 26 26 24 23 22 21 20 19 18 17 17 16 15 15 14 14 13 13 12 12 12 12 12 12 12 13 13 14 14 14 15 15 16 16 17 17 17 18 18 18 18 19 19 19 20 20 20 20 20 20 21 21 21 21 21 21 22 22 22 22 23 23 24 24 25 25 26 26 26 26 27 27 27 27 27
33 32 31 30 29 29 28 28 28 27 26 25 23 22 21 20 20 19 19 18 17 17 16 15 15 14 14 13 13 13 13 13 13 13 13 13 14 14 15 15 15 16 16 16 17 17 17 17 18 18 18 18 19 19 19 19 19 19 20 20 20 20 20 21 21 21 21 21 22 22 22 23 23 23 24 24 25 25 26 26 26 26 26 26 26
31 30 30 29 29 29 28 28 27 26 25 23 22 21 20 20 20 20 19 19 18 17 17 16 16 15 15 14 14 14 14 14 14 14 14 14 14 15 15 15 16 16 16 17 17 17 17 17 17 18 18 18 18 18 19 19 19 19 19 20 20 20 20 20 21 21 21 21 22 22 22 23 23 23 24 24 24 25 25 25 25 25 25 25 25
29 29 28 28 28 28 28 27 26 25 23 22 21 21 20 20 20 20 20 20 19 18 18 17 17 16 16 16 16 15 15 15 15 15 15 15 15 15 16 16 16 16 17 17 17 17 17 17 18 18 18 18 18 18 19 19 19 19 19 19 20 20 20 20 21 21 21 22 22 22 23 23 23 23 23 24 24 24 24 24 24 24 24 24 24
28 27 27 27 27 27 26 26 25 23 22 22 21 21 21 20 20 20 20 20 20 19 19 18 18 17 17 16 16 16 16 16 16 16 16 16 16 16 16 17 17 17 17 17 17 17 18 18 18 18 18 18 19 19 19 19 19 19 19 20 20 20 20 21 21 21 22 22 22 22 23 23 23 23 23 23 23 23 23 23 23 23 23 23 23
27 27 26 27 26 26 25 24 23 22 22 22 21 21 21 21 21 20 20 20 20 20 20 19 19 18 18 17 17 17 17 17 17 17 17 17 17 17 17 17 17 18 18 18 18 18 18 18 18 18 18 19 19 19 19 19 19 20 20 20 20 20 21 21 21 21 22 22 22 22 23 23 23 23 23 23 23 22 22 22 22 22 22 22 21
27 26 26 26 25 24 23 22 22 22 22 22 22 22 21 21 21 20 20 20 20 20 20 20 20 19 19 19 18 18 18 18 18 18 18 18 18 18 18 18 18 18 18 18 18 18 18 18 18 19 19 19 19 19 19 19 20 20 20 20 20 20 21 21 21 21 22 22 22 23 23 23 23 23 23 22 22 22 22 21 21 21 21 20 20
27 26 26 25 24 23 22 22 22 22 22 22 22 21 21 20 20 20 20 20 20 20 21 21 20 20 20 20 20 20 19 19 19 19 19 19 19 19 19 19 19 19 19 19 19 19 19 19 19 19 19 19 19 19 19 19 20 20 20 20 20 20 21 21 21 21 21 22 22 22 23 23 23 22 22 22 22 21 21 21 20 20 20 19 19
27 26 25 24 23 22 21 21 21 21 21 21 21 21 20 20 20 20 20 20 20 20 21 21 21 21 21 21 21 21 21 21 21 20 20 20 20 20 20 20 20 20 20 20 19 19 19 19 19 19 19 19 19 19 19 19 19 19 20 20 20 20 20 21 21 21 21 22 22 22 22 22 22 22 22 21 21 21 20 20 20 19 19 18 18
27 26 24 23 22 21 21 21 21 21 21 20 20 20 20 20 20 19 19 19 20 20 20 21 21 21 21 22 22 22 22 22 22 22 21 21 21 21 21 21 21 21 20 20 20 20 20 19 19 19 19 19 19 19 19 19 19 19 19 19 20 20 20 20 21 21 21 21 21 21 21 21 21 21 21 20 20 20 20 19 19 18 18 17 17
26 25 24 23 22 22 22 22 22 21 21 20 20 19 19 19 19 19 20 20 20 20 20 21 21 22 22 22 22 22 22 23 23 23 23 22 22 22 22 22 21 21 21 21 21 21 20 20 20 20 19 19 19 19 19 19 19 19 19 19 19 19 20 20 20 20 20 20 20 20 20 20 20 19 19 19 19 19 18 18 18 17 17 16 16
27 26 25 24 24 24 24 24 23 22 22 21 20 20 20 20 20 20 20 20 20 20 20 21 21 22 22 22 22 22 23 23 23 23 23 23 23 23 23 23 22 22 22 22 21 21 21 21 20 20 20 19 19 19 19 19 19 19 19 19 19 19 19 19 19 19 18 18 18 18 18 18 18 18 18 17 17 17 17 17 16 16 15 15 15
27 26 26 26 26 26 26 25 25 24 23 23 22 22 21 21 20 20 20 19 20 20 20 20 21 21 22 22 23 23 23 23 23 24 24 24 24 24 24 24 23 23 23 22 22 22 22 21 21 20 20 20 19 19 19 19 18 19 19 18 18 18 18 18 17 17 17 17 17 17 17 17 17 17 16 16 16 16 16 16 15 15 14 14 13
Wind_Direction
282 281 280 279 279 278 277 276 275 274 274 273 273 272 271 271 271 271 270 270 269 269 268 267 266 265 265 264 264 263 262 261 260 258 257 256 255 254 253 253 252 251 249 248 248 248 248 247 247 246 246 246 246 245 245 245 245 245 245 245 245 244 245 245 247 248 247 247 247 247 246 245 244 245 245 246 245 245 245 244 245 245 246 246 246
284 282 281 280 280 279 278 277 276 275 275 274 274 273 272 271 271 271 270 270 270 269 269 268 267 266 265 264 263 262 262 261 260 259 258 256 256 254 253 253 253 252 250 248 248 247 248 248 247 247 246 246 246 246 245 245 244 244 244 244 244 244 245 245 247 248 247 247 247 247 245 244 244 245 245 245 245 244 244 244 245 246 246 247 247
286 284 283 282 281 280 279 278 278 277 276 275 275 274 273 273 272 271 270 270 269 269 269 268 267 266 265 264 263 262 261 261 259 259 258 257 256 255 254 253 252 252 251 250 248 247 247 247 247 247 247 246 246 246 245 245 244 244 244 244 244 244 245 245 246 247 247 247 246 246 245 244 244 245 245 245 245 244 244 245 245 246 247 247 248
289 287 286 284 283 282 280 280 279 278 277 277 276 275 275 275 274 273 272 271 270 269 268 267 266 265 264 264 263 262 261 260 259 258 258 257 256 255 255 253 252 252 252 251 250 248 247 247 247 247 247 247 246 246 245 245 245 244 244 244 244 244 245 245 245 246 246 246 246 245 245 245 245 245 245 245 245 245 245 245 245 247 247 248 249
290 289 288 287 285 284 282 281 280 279 279 278 278 277 276 276 275 274 273 272 271 270 268 267 266 264 263 263 262 262 261 260 259 258 257 257 256 255 255 254 253 252 251 251 251 249 248 247 246 246 246 246 246 246 245 245 245 244 244 244 244 244 244 245 245 245 245 245 245 245 245 245 245 245 245 244 244 245 246 245 245 246 247 248 249
291 290 290 289 288 286 285 283 282 281 280 280 279 279 278 278 277 276 275 274 273 271 270 268 266 265 264 263 262 261 261 260 259 258 257 256 255 255 254 254 253 253 252 251 250 250 249 247 246 246 246 246 246 245 245 244 244 244 244 243 244 244 244 244 244 244 244 244 245 244 244 244 244 244 244 244 243 244 245 245 245 246 247 248 250
292 291 291 290 289 288 287 285 284 282 282 281 281 280 280 279 278 277 276 275 274 272 271 269 268 266 265 264 263 261 260 260 259 258 257 256 255 255 254 254 253 252 252 251 250 250 249 248 247 246 245 246 246 245 245 244 244 244 243 243 243 243 243 244 244 243 243 243 243 243 243 243 243 243 243 243 243 243 243 244 245 246 248 249 251
292 291 291 291 290 289 288 287 285 284 283 282 282 282 281 281 280 278 277 276 275 273 272 270 268 267 266 265 264 262 261 259 259 258 257 256 254 254 254 253 253 252 251 251 250 249 249 248 247 246 245 245 245 245 244 244 244 244 243 243 242 242 243 243 243 242 243 243 243 243 242 242 242 243 242 242 242 243 243 244 245 247 248 250 250
293 292 291 291 291 290 289 288 286 285 284 284 283 283 283 282 281 280 279 277 276 274 273 271 269 268 266 265 264 263 262 260 259 258 257 256 254 253 253 253 252 251 251 250 250 249 248 248 247 247 246 245 244 244 244 243 243 243 243 243 242 242 242 242 241 242 242 242 242 242 242 242 242 242 242 242 242 243 244 245 246 247 248 250 250
293 292 292 292 292 291 290 289 288 287 286 285 284 284 284 284 283 282 280 279 277 276 274 273 271 269 268 266 265 264 263 261 260 259 258 256 255 253 252 252 251 250 250 250 249 248 247 247 247 246 246 245 244 243 243 242 242 242 242 242 242 241 241 241 241 241 241 241 241 241 242 242 242 242 242 243 243 244 245 245 246 247 247 248 249
294 293 292 293 293 292 292 290 290 289 288 287 286 286 286 285 284 283 282 280 278 277 275 274 272 270 269 267 266 264 263 262 261 260 259 257 255 253 252 251 250 249 249 249 248 248 247 246 246 245 245 245 244 243 242 242 241 241 241 240 240 240 240 240 240 240 240 241 241 241 241 242 242 242 243 243 244 244 245 245 245 246 246 247 248
295 294 294 294 294 294 293 292 291 291 290 288 288 288 287 286 285 284 282 281 279 277 276 275 273 272 270 268 267 265 264 263 262 260 259 258 256 254 252 251 249 248 248 247 247 247 247 246 245 244 243 243 243 242 241 241 240 240 239 239 239 239 239 239 240 240 240 240 241 241 241 242 242 241 242 242 243 244 244 245 245 245 246 246 246
296 295 295 295 295 295 294 293 292 292 291 290 289 289 288 287 286 285 283 282 280 278 277 276 274 273 271 269 268 267 265 264 263 261 259 257 256 254 252 251 249 248 247 246 245 245 246 245 244 243 242 241 241 241 240 240 239 239 238 238 238 238 238 239 239 240 240 240 240 240 241 241 241 241 242 242 242 243 244 245 245 246 246 246 246
297 296 296 296 296 295 294 294 293 293 293 293 292 291 290 289 287 286 284 282 281 279 278 276 274 273 271 270 269 268 267 265 263 261 259 257 256 254 252 250 249 247 246 245 243 243 244 244 243 242 241 240 240 239 239 239 238 238 238 238 238 238 238 238 239 239 240 240 240 241 241 241 242 242 242 242 243 244 244 245 245 245 246 246 247
299 298 298 297 297 297 296 295 295 295 296 295 294 293 292 291 289 287 286 284 282 280 278 276 274 273 272 271 270 269 268 267 264 261 259 257 256 254 252 250 249 247 245 244 243 242 242 243 242 241 240 239 238 238 237 237 237 237 237 237 237 237 238 238 238 239 240 240 241 241 242 242 242 243 243 243 244 245 245 245 245 245 246 247 247
302 301 300 299 299 298 298 297 297 297 297 297 296 295 294 293 291 290 288 285 283 281 279 277 275 273 272 272 271 270 269 267 264 261 258 257 256 254 251 249 248 246 243 242 242 241 241 241 241 240 239 238 237 237 236 236 236 236 236 236 237 237 237 238 238 238 239 240 240 241 241 241 242 242 243 243 244 244 245 245 245 245 246 247 248
305 304 302 301 301 300 300 299 298 298 298 297 296 295 295 294 294 292 289 286 284 283 281 279 277 274 272 272 271 270 269 267 264 260 258 257 256 254 251 249 247 245 242 241 241 240 239 239 239 238 238 237 236 236 236 235 235 235 235 235 235 236 236 237 237 238 238 239 239 239 240 240 240 241 242 242 243 243 243 244 244 245 246 247 248
307 306 304 303 303 302 301 301 300 300 300 299 298 298 297 297 295 293 290 289 287 286 284 282 279 276 273 272 271 270 268 265 263 261 259 257 256 254 251 248 246 244 241 239 239 238 237 237 237 236 237 237 236 236 235 235 235 234 234 234 234 235 235 236 236 236 237 237 238 238 238 239 240 240 241 241 241 242 243 244 245 245 246 247 248
309 307 306 305 305 304 304 303 303 302 302 302 301 301 300 298 296 294 293 291 290 289 287 285 282 279 275 273 271 269 267 264 263 262 259 257 255 253 250 247 245 243 240 238 237 237 236 236 235 235 235 235 235 235 234 234 234 234 233 233 232 233 234 234 234 235 235 236 237 237 238 239 239 240 241 241 241 243 244 245 246 246 246 247 248
309 308 308 307 307 307 306 305 304 304 304 303 302 302 301 300 298 297 295 293 292 291 289 287 284 281 277 274 271 269 267 264 263 262 259 257 254 251 249 246 243 241 238 236 235 235 235 234 233 233 233 233 234 234 233 233 233 233 233 233 232 232 233 233 233 234 234 235 236 237 238 238 239 240 241 241 242 243 244 245 246 246 247 248 248
311 310 310 310 309 309 307 306 306 306 305 305 304 303 302 302 301 299 297 295 294 294 292 289 286 283 279 276 273 270 268 265 263 261 259 256 252 249 246 244 241 238 236 234 233 233 233 233 232 232 232 232 232 232 232 231 231 232 232 232 232 232 232 233 233 233 234 235 235 236 237 238 239 240 241 242 243 244 245 246 246 247 248 248 249
312 312 311 311 311 310 309 308 308 307 307 307 306 305 304 304 303 301 299 298 297 296 295 292 289 285 281 278 275 272 269 266 263 261 258 254 250 248 245 242 238 236 234 233 232 231 231 231 231 230 231 231 231 231 230 229 230 231 231 231 231 231 232 233 233 233 234 235 235 236 237 238 240 241 242 243 244 245 246 246 247 248 249 250 250
313 313 312 312 312 312 312 311 310 309 309 309 308 307 306 306 305 303 302 301 300 299 297 294 291 288 285 280 277 274 270 267 264 261 257 252 248 246 243 239 236 234 232 231 230 229 229 229 229 229 230 229 229 229 229 228 229 230 231 230 230 231 232 232 233 234 234 235 236 237 238 239 240 241 242 243 244 245 246 247 248 248 249 250 251
314 314 313 313 314 314 314 313 312 311 311 311 310 309 308 308 307 306 304 303 302 301 299 296 293 291 287 283 279 275 271 267 264 259 254 250 246 244 241 238 235 232 230 229 228 227 226 227 227 228 227 227 227 227 226 227 228 229 229 229 229 230 231 232 233 234 235 236 237 238 239 240 241 242 243 244 244 246 247 247 248 249 249 250 252
314 314 314 314 315 315 315 314 313 312 313 313 312 311 310 310 309 308 306 306 305 303 300 298 295 292 289 285 282 277 272 268 263 256 252 249 244 241 239 236 232 228 227 226 225 224 224 224 224 224 224 224 224 225 225 226 227 228 229 229 230 231 232 232 233 234 235 236 237 238 239 241 242 242 243 244 245 245 246 247 248 249 249 250 251
313 314 315 315 316 316 315 315 314 313 314 314 314 313 312 311 310 309 308 308 306 304 302 300 297 294 291 286 283 279 275 269 261 254 251 247 240 237 235 230 225 224 222 222 222 222 221 221 221 221 222 222 223 224 225 226 226 227 228 229 230 231 232 233 233 234 235 236 237 238 239 240 241 242 243 244 245 245 246 247 247 248 249 249 250
311 313 315 316 316 316 315 315 314 313 313 315 315 314 313 312 311 311 310 309 308 306 304 301 299 296 292 287 283 280 276 269 259 252 250 244 236 232 230 226 222 220 219 219 220 219 218 219 220 220 221 221 222 223 225 226 226 227 227 228 229 231 232 232 233 234 235 236 237 238 238 239 240 241 242 243 244 245 246 247 248 249 250 250 251
310 312 314 315 316 316 315 314 313 312 312 313 315 315 314 313 312 311 310 310 309 307 305 302 300 297 293 288 282 279 276 269 258 251 247 240 233 229 227 225 222 220 219 219 219 218 218 219 220 221 221 222 222 224 225 226 226 226 227 228 229 230 231 231 232 233 234 235 236 237 238 239 240 241 242 243 245 246 247 248 248 249 250 251 252
310 311 313 315 315 315 314 313 312 311 310 311 313 313 313 313 311 310 310 309 309 307 304 301 300 297 292 287 282 277 273 267 258 251 244 236 230 228 226 224 223 221 219 218 217 217 217 218 219 220 221 221 222 223 224 225 225 225 227 228 229 230 231 231 232 233 234 235 236 237 238 239 241 242 243 244 245 247 248 249 249 250 252 252 253
310 311 312 314 315 315 314 312 311 310 309 309 310 311 311 311 311 310 310 309 307 305 301 299 299 296 289 283 279 272 266 263 257 251 243 233 227 225 224 222 220 218 214 213 213 214 215 216 218 219 219 220 220 221 222 222 223 224 226 227 228 230 231 232 233 233 234 235 236 237 238 239 240 241 243 244 245 247 249 250 251 251 252 253 254
311 311 312 313 314 314 313 311 310 309 308 307 308 309 310 310 310 309 310 308 307 304 300 297 298 299 292 285 277 267 260 256 253 249 241 229 223 220 217 215 215 213 210 209 211 213 213 214 216 217 218 218 219 219 220 220 222 223 225 227 228 230 231 232 233 234 235 236 237 237 238 239 240 242 243 244 246 247 249 250 251 252 253 254 254
311 311 311 312 313 313 312 311 309 308 307 306 306 307 308 309 309 309 308 308 306 303 298 295 295 298 298 294 285 269 257 250 246 243 238 230 224 220 216 215 216 213 210 210 212 214 214 215 216 216 216 216 217 218 219 220 221 223 224 226 228 230 231 232 234 235 236 236 237 239 240 241 242 243 244 245 247 248 250 251 252 253 253 254 255
310 310 310 311 312 312 311 310 309 308 307 305 304 304 305 306 307 307 306 306 305 301 296 293 291 290 289 288 284 274 261 250 243 239 235 229 225 223 222 222 222 218 214 213 214 215 215 216 216 215 215 215 216 217 218 219 221 223 224 226 228 229 231 232 233 235 236 237 238 239 240 241 242 244 245 246 248 249 250 251 252 253 253 254 255
310 310 310 310 311 310 309 309 309 308 307 305 303 302 302 302 303 304 303 304 303 300 295 290 287 285 281 276 271 266 259 251 243 238 234 229 225 226 226 224 220 217 215 213 213 213 213 213 213 213 213 213 214 216 217 219 221 223 225 227 228 230 231 233 234 235 236 237 238 239 240 241 243 244 245 246 248 249 250 250 251 252 253 254 255
309 310 310 310 310 309 307 307 308 308 306 304 302 301 299 298 299 300 300 299 298 296 292 288 285 281 277 271 265 259 255 251 246 242 239 236 232 230 228 222 217 214 213 212 211 212 212 212 212 212 213 213 215 216 218 219 221 223 225 227 229 230 232 234 235 236 237 238 239 240 241 242 243 244 245 247 248 249 250 251 252 253 253 254 254
309 309 309 309 309 308 306 306 307 307 305 303 300 298 297 296 295 295 295 294 292 290 287 284 282 278 274 269 264 259 254 251 247 244 241 240 237 232 227 221 217 215 214 214 213 213 213 214 214 214 214 216 217 219 220 222 223 225 226 228 229 231 232 234 235 237 238 239 240 241 242 243 244 246 247 248 249 249 250 251 252 253 254 254 255
308 308 308 308 307 306 305 305 305 305 304 302 299 296 293 292 291 291 291 290 289 286 283 280 278 274 270 266 262 258 253 249 245 243 240 238 235 229 224 219 216 215 216 217 217 216 216 216 216 216 217 217 218 220 221 223 224 226 227 228 230 231 233 234 236 237 239 240 241 242 243 244 245 246 247 248 249 250 251 252 253 253 254 255 255
307 307 307 307 305 304 304 304 304 304 303 301 298 294 290 287 287 287 287 286 285 283 280 276 273 269 266 264 260 256 252 247 244 241 237 234 230 227 222 219 217 217 218 219 219 218 218 217 217 217 217 218 219 220 221 223 225 226 228 229 230 232 233 234 236 237 239 240 242 243 245 246 247 248 249 249 250 251 252 253 253 254 255 255 256
305 305 306 305 304 303 303 303 302 302 302 301 298 293 287 284 283 283 283 282 281 280 277 273 269 265 262 260 257 253 250 246 243 240 236 232 230 227 224 221 220 220 220 220 220 220 219 218 218 218 218 219 220 221 222 224 225 227 228 230 231 232 234 235 237 238 240 241 243 244 246 247 248 250 251 251 251 252 252 253 254 254 255 255 256
304 304 304 304 303 302 302 302 301 301 300 299 297 292 287 283 281 280 279 279 278 276 274 271 267 263 260 257 253 250 246 244 242 239 236 233 231 229 226 224 223 223 222 222 221 220 219 218 218 219 220 221 222 223 224 226 227 228 230 231 232 233 235 236 238 239 241 242 244 245 247 248 249 250 252 252 252 252 253 253 254 254 254 255 255
304 303 302 303 303 302 301 301 300 299 298 296 294 291 287 284 281 278 277 275 274 272 271 268 264 262 258 255 252 249 245 242 240 238 236 234 232 230 228 225 224 223 222 221 221 220 220 220 220 221 221 222 224 225 226 228 229 230 231 232 234 235 236 238 240 241 243 244 246 247 248 249 250 251 252 252 253 253 254 254 254 254 254 254 255
306 304 303 303 303 302 301 300 299 298 296 293 291 290 288 285 281 278 275 273 271 269 268 265 263 260 257 254 252 249 246 242 239 237 235 234 232 230 228 226 225 224 223 222 221 221 221 221 222 223 224 225 226 227 228 230 231 232 233 234 236 237 239 241 243 244 246 247 248 249 250 251 252 252 252 252 253 253 254 254 254 254 254 254 254
311 308 306 305 304 303 302 300 298 297 294 292 290 289 287 285 282 278 274 271 269 266 265 263 261 259 256 253 251 248 246 243 239 237 235 234 232 231 229 227 227 226 225 224 223 222 223 223 224 226 227 228 229 230 230 231 232 234 235 236 238 239 241 243 245 247 249 250 250 251 252 252 253 253 253 253 253 253 253 252 252 252 252 252 253
316 313 310 308 306 304 302 300 298 296 294 292 290 288 286 284 282 278 274 270 267 265 262 261 259 257 255 252 250 247 245 243 241 238 236 235 234 232 231 229 228 228 227 226 225 225 225 226 227 228 229 230 231 231 232 233 234 236 237 239 241 242 244 247 248 250 251 251 252 252 253 253 253 253 252 252 252 252 251 251 250 250 251 251 252
320 317 314 312 309 306 304 301 299 297 295 294 291 289 286 284 281 278 274 270 267 264 261 259 257 256 253 251 249 247 245 244 241 239 237 235 235 234 232 230 229 229 229 229 228 228 228 228 229 230 231 231 232 233 234 235 236 238 240 242 244 246 248 249 250 250 251 252 252 252 252 252 252 252 251 251 251 251 250 249 249 249 249 249 250
322 320 318 315 312 309 306 303 301 299 297 295 293 290 287 284 281 278 274 271 267 264 261 258 256 254 252 250 248 246 245 244 242 240 238 236 235 235 234 232 230 229 230 230 229 229 229 230 231 231 232 233 234 235 236 237 238 240 242 244 246 248 248 249 249 250 251 252 252 252 252 252 252 251 250 250 250 249 248 247 247 247 247 247 247
321 320 320 318 315 312 310 308 306 303 300 297 294 291 288 285 282 278 275 272 268 264 261 258 256 254 252 250 248 246 244 243 241 240 238 237 236 235 235 233 232 231 231 231 230 230 230 231 232 233 234 235 236 237 238 240 241 243 244 246 247 248 249 249 249 250 251 252 252 252 252 252 251 250 249 248 247 246 245 244 243 243 243 243 244
319 319 318 317 315 313 312 311 309 307 304 300 297 293 290 287 284 280 276 273 269 266 262 259 256 254 252 250 248 246 244 243 241 239 237 236 235 235 234 233 232 232 232 232 232 231 232 232 233 234 235 236 237 239 240 242 243 245 246 247 248 249 249 250 251 251 252 251 251 250 250 250 249 247 246 245 243 242 240 239 238 238 238 239 240
317 317 316 314 313 312 311 310 309 307 305 302 299 296 292 289 285 282 278 274 270 267 263 260 257 254 251 249 248 246 244 243 241 239 237 236 235 234 234 233 232 232 232 232 232 232 232 232 233 234 235 237 238 239 242 243 245 246 248 249 249 250 250 251 252 252 251 250 248 247 246 246 245 243 242 240 238 236 234 233 233 233 234 235 236
315 314 313 312 311 310 309 308 307 305 303 300 298 296 294 291 287 283 280 276 272 268 264 261 258 254 251 249 247 246 244 243 241 239 238 236 235 234 234 233 232 232 232 232 233 232 233 233 234 235 236 238 239 241 243 245 246 247 248 249 250 250 251 250 250 249 248 246 245 243 242 242 240 238 236 234 231 229 227 227 228 228 229 230 232
313 312 311 309 308 308 307 305 304 302 300 298 296 294 293 291 288 284 281 278 274 269 265 261 258 255 251 249 247 245 244 242 241 239 238 236 235 235 234 233 233 233 232 233 233 233 233 234 235 236 237 238 240 242 244 245 246 247 248 248 249 248 248 247 246 246 244 243 241 238 236 235 233 230 228 225 223 222 221 221 221 222 223 226 230